Weather History for St. Cloud, MN

Change the Weather History Date:

Thursday, August 14, 2014

  Actual Average Record
Temperature  
Mean Temperature 70 °F 68 °F  
Max Temperature 81 °F 80 °F 94 °F (1970)
Min Temperature 58 °F 57 °F 38 °F (1992)
Degree Days  
Heating Degree Days 0 1  
Month to date heating degree days 0 14  
Since 1 June heating degree days 33 109  
Since 1 July heating degree days 7 31  
Cooling Degree Days 5 4  
Month to date cooling degree days 94 69  
Year to date cooling degree days 446 371  
Since 1 June cooling degree days 402 346  
Growing Degree Days 18 (Base 50)    
Moisture  
Dew Point 56 °F    
Average Humidity 69    
Maximum Humidity 93    
Minimum Humidity 45    
Precipitation  
Precipitation 0.00 in 0.12 in 1.34 in (1928)
Month to date precipitation 1.18 1.61  
Year to date precipitation 24.96 17.40  
Snow  
Snow 0.00 in 0.00 in 0.00 in ()
Month to date snowfall 0.0 0.0  
Since 1 June snowfall 0.0 0.0  
Since 1 July snowfall 0.0 0.0  
Snow Depth 0.00 in    
Sea Level Pressure  
Sea Level Pressure 30.08 in    
Wind  
Wind Speed 6 mph (ESE)    
Max Wind Speed 14 mph    
Max Gust Speed 18 mph    
Visibility 10 miles    
Events      
T = Trace of Precipitation, MM = Missing Value Source: NWS Daily Summary

Daily Weather History Graph

Daily Weather History Graph

Search for Another Location

Airport:

Trip Planner

Search our weather history database for the weather conditions in past years. The results will help you decide how hot, cold, wet, or windy it might be!

Date:

Astronomy

Aug. 14, 2014 Rise Set
Actual Time 6:15 AM CDT 8:25 PM CDT
Civil Twilight 5:43 AM CDT 8:57 PM CDT
Nautical Twilight 5:02 AM CDT 9:37 PM CDT
Astronomical Twilight 4:18 AM CDT 10:22 PM CDT
Moon 10:31 PM CDT (8/14) 11:09 AM CDT (8/14)
Length of Visible Light 15h 14m
Length of Day
14h 09m
Waning Gibbous, 79% of the Moon is Illuminated
Aug 14
Waning Gibbous
Aug 17
Last Quarter
Aug 25
New
Sep 2
First Quarter
Sep 8
Full

Hourly Weather History & Observations

Time (CDT) Temp. Heat Index Dew Point Humidity Pressure Visibility Wind Dir Wind Speed Gust Speed Precip Events Conditions
12:53 AM 61.0 °F - 55.0 °F 81% 30.12 in 10.0 mi East 3.5 mph - N/A   Clear
1:53 AM 59.0 °F - 55.0 °F 87% 30.12 in 10.0 mi Calm Calm - N/A   Clear
2:53 AM 57.9 °F - 55.0 °F 90% 30.12 in 10.0 mi NNE 3.5 mph - N/A   Mostly Cloudy
3:53 AM 57.9 °F - 55.0 °F 90% 30.12 in 10.0 mi Calm Calm - N/A   Scattered Clouds
4:53 AM 60.1 °F - 55.0 °F 83% 30.12 in 10.0 mi East 8.1 mph - N/A   Mostly Cloudy
5:53 AM 59.0 °F - 54.0 °F 83% 30.12 in 10.0 mi East 3.5 mph - N/A   Partly Cloudy
6:53 AM 59.0 °F - 54.0 °F 83% 30.14 in 10.0 mi East 5.8 mph - N/A   Mostly Cloudy
7:53 AM 61.0 °F - 53.1 °F 75% 30.14 in 10.0 mi ESE 6.9 mph - N/A   Partly Cloudy
8:53 AM 63.0 °F - 53.1 °F 70% 30.14 in 10.0 mi SE 8.1 mph - N/A   Scattered Clouds
9:53 AM 66.9 °F - 53.1 °F 61% 30.14 in 10.0 mi ESE 6.9 mph - N/A   Scattered Clouds
10:53 AM 71.1 °F - 53.1 °F 53% 30.14 in 10.0 mi SSE 8.1 mph - N/A   Clear
12:53 PM 75.9 °F - 54.0 °F 46% 30.11 in 10.0 mi SE 11.5 mph - N/A   Partly Cloudy
1:53 PM 79.0 °F - 55.0 °F 44% 30.09 in 10.0 mi SE 9.2 mph - N/A   Clear
2:53 PM 79.0 °F - 55.0 °F 44% 30.07 in 10.0 mi SSE 8.1 mph - N/A   Partly Cloudy
3:53 PM 80.1 °F 80.4 °F 57.0 °F 45% 30.06 in 10.0 mi SE 10.4 mph - N/A   Clear
4:53 PM 78.1 °F - 57.9 °F 50% 30.06 in 10.0 mi South 6.9 mph - N/A   Mostly Cloudy
5:53 PM 80.1 °F 80.6 °F 57.9 °F 47% 30.03 in 10.0 mi SSE 9.2 mph - N/A   Clear
6:53 PM 78.1 °F - 57.9 °F 50% 30.02 in 10.0 mi SSE 8.1 mph - N/A   Clear
7:53 PM 75.0 °F - 60.1 °F 60% 30.01 in 10.0 mi ESE 4.6 mph - N/A   Clear
8:53 PM 71.1 °F - 60.1 °F 68% 30.01 in 10.0 mi East 4.6 mph - N/A   Clear
9:53 PM 70.0 °F - 59.0 °F 68% 30.02 in 10.0 mi ESE 4.6 mph - N/A   Clear
10:53 PM 69.1 °F - 57.9 °F 68% 30.01 in 10.0 mi ESE 4.6 mph - N/A   Clear
11:53 PM 69.1 °F - 59.0 °F 70% 30.01 in 10.0 mi ESE 5.8 mph - N/A   Mostly Cloudy